Regional Weather Roundup
Issued by NWS Upton, NY

Current Version | Previous Version | Text Only | Print | Product List | Glossary On
Versions: 1 2 3 4 5 6 7 8 9 10 11 12 13 14 15 16 17 18 19 20 21 22 23 24 25 26 27 28 29 30 31 32 33 34 35 36 37 38 39 40 41 42 43 44 45 46 47 48 49 50
000 ASUS41 KOKX 261005 RWROKX REGIONAL WEATHER ROUNDUP NATIONAL WEATHER SERVICE NEW YORK NY 500 AM EST FRI DEC 26 2014 NOTE: "FAIR" INDICATES FEW OR NO CLOUDS BELOW 12,000 FEET WITH NO SIGNIFICANT WEATHER AND/OR OBSTRUCTIONS TO VISIBILITY. NYZ071-072-176-178-NJZ106-104-261100- NEW YORK CITY METRO AREA CITY SKY/WX TMP DP RH WIND PRES REMARKS CENTRAL PARK CLEAR 41 28 60 VRB5 30.18R LAGUARDIA APRT CLEAR 42 29 59 W9 30.16R KENNEDY INTL CLEAR 40 31 70 W9 30.18R WCI 34 NEWARK/LIBERTY CLEAR 37 29 72 W8 30.18R WCI 31 BRNX BOT. GARD N/A N/A N/A N/A W8 30.18R TETERBORO CLEAR 38 30 73 SW5 30.16R WCI 34 $$ NYZ177-179-078>081-261100- LONG ISLAND NEW YORK CITY SKY/WX TMP DP RH WIND PRES REMARKS FARMINGDALE CLEAR 38 30 73 W7 30.16R WCI 33 ISLIP CLEAR 35 29 78 SW6 30.14R WCI 30 SHIRLEY CLEAR 37 29 72 SW5 30.15S WCI 33 WESTHAMPTON CLEAR 29 25 85 CALM 30.15R MONTAUK POINT N/A 43 34 70 SW6 30.13R $$ NYZ052-065-067-261100- HUDSON VALLEY CITY SKY/WX TMP DP RH WIND PRES REMARKS WHITE PLAINS CLEAR 37 27 67 SW5 30.13R WCI 33 NEWBURGH CLEAR 36 28 75 CALM 30.13S MONTGOMERY CLEAR 32 26 78 SW6 30.13R WCI 26 POUGHKEEPSIE CLEAR 30 26 85 CALM 30.12R ALBANY CLOUDY 42 27 55 W14 30.14R $$ NJZ001-105-106-008-010-013-015-019>022-104-261100- NEW JERSEY CITY SKY/WX TMP DP RH WIND PRES REMARKS NEWARK/LIBERTY CLEAR 37 29 72 W8 30.18R WCI 31 TETERBORO CLEAR 38 30 73 SW5 30.16R WCI 34 CALDWELL CLEAR 32 28 85 CALM 30.17R MORRISTOWN CLEAR 32 30 93 SW5 30.18R WCI 27 SOMERVILLE CLEAR 30 26 85 CALM 30.18R SUSSEX CLEAR 28 25 88 CALM 30.15R ANDOVER NOT AVBL TRENTON CLEAR 36 28 73 W7 30.20R WCI 30 MILLVILLE CLEAR 29 27 92 W3 30.23R ATLANTIC CITY CLEAR 31 27 85 NW3 30.23R WRIGHTSTOWN CLEAR 34 29 84 W5 30.19R WCI 30 TOMS RIVER CLEAR 32 30 93 CALM 30.20R BELMAR CLEAR 37 25 60 W7 30.19R WCI 32 $$ PAZ047>061-062-071-261100- EASTERN PENNSYLVANIA CITY SKY/WX TMP DP RH WIND PRES REMARKS PHILADELPHIA CLEAR 35 29 78 W9 30.25R WCI 28 ALLENTOWN CLEAR 33 26 75 SW7 30.19R WCI 27 SCRANTON CLEAR 33 26 75 SW7 30.16R WCI 27 $$ CTZ002-004>006-009-010-012-RIZ004-006-007-MAZ004-011-015-261100- SOUTHERN NEW ENGLAND IN CT CITY SKY/WX TMP DP RH WIND PRES REMARKS BRADLEY INTL MOCLDY 41 28 60 NW5 30.09S HARTFORD CLEAR 34 30 85 CALM 30.11S DANBURY CLEAR 30 26 85 S3 30.13R WTRBRY/OXFORD CLEAR 30 21 69 CALM 30.11R BRIDGEPORT CLEAR 38 30 73 W3 30.14R MERIDEN CLEAR 29 27 92 CALM 30.13R NEW HAVEN CLEAR 42 30 62 CALM 30.14R CHESTER FAIR 36 30 80 W5 30.12R WCI 32 GROTON CLEAR 37 30 75 W6 30.12R WCI 32 WILLIMANTIC CLOUDY 39 29 67 SW5 30.11R IN RI CITY SKY/WX TMP DP RH WIND PRES REMARKS PROVIDENCE CLEAR 36 29 75 SW6 30.11R WCI 31 BLOCK ISLAND CLEAR 45 30 57 W8 30.11S WESTERLY CLEAR 40 29 64 W3 30.12R IN MA CITY SKY/WX TMP DP RH WIND PRES REMARKS BOSTON CLEAR 41 29 62 SW9 30.06R WORCESTER CLEAR 36 28 73 W9 30.04R WCI 29 WESTFIELD MOCLDY 42 28 57 NW10 30.08S PROVINCETOWN CLEAR 43 30 61 W13 30.07R NANTUCKET CLEAR 42 32 67 W10 30.10R $$ ANZ330-335-338-340-345-350-353-355-261100- COASTAL MARINE OBSERVATIONS STATION/POSITION TIME SKY/WX TEMP WIND PRES VSBY WAVE AIR SEA DIR/SP/G HT/PER (UTC) (F) (DEG/KT/KT) (MB) (MI) (FT/S) NY HARB ENTRANCE 1000 43 45 270/ 14/ 16 1022.1 2/ 3 4S FIRE IS 1000 47 N/A 4/ 5 20S FIRE ISLAND 0900 45 49 1021.2 4/ 4 23SW MTP 1000 N/A 5/ 6 HUDSON CANYON 1000 46 55 290/ 17/ 19 1021.5 6/ 6 EXECUTION ROCKS 1000 42 42 240/ 10/ 14 N/A WESTERN LI SOUND 1000 43 250/ 12/ 14 N/A 1/ 3 CENTRAL LI SOUND 0900 44 44 260/ 16/ 17 N/A 3/ 4 EASTERN LI SOUND NOT AVBL ROBBINS REEF 1000 39 1020.4 $$ >>>>>>>>>>>>>>>>>>>>>>>>>>>> KEY <<<<<<<<<<<<<<<<<<<<<<<<<<< > < > SKY/WX - SKY CONDITION/PRESENT WEATHER < > TMP - TEMPERATURE IN FAHRENHEIT < > DP - DEWPOINT IN FAHRENHEIT < > RH - RELATIVE HUMIDITY IN PERCENT < > WIND - DIRECTION AND SPEED IN MPH < > PRES - MEAN SEA LEVEL PRESSURE IN INCHES OF HG < > WCI - WIND CHILL INDEX < > VSB - VISIBILITY IN MILES < > HX - HEAT INDEX < > TC - TEMPERATURE IN CELSIUS < > VRB - VARIABLE WIND DIRECTION < > < >>>>>>>>>>>>>>>>>>>>>>>>>>>> KEY <<<<<<<<<<<<<<<<<<<<<<<<<<<

USA.gov is the U.S. government's official web portal to all federal, state and local government web resources and services.